Simultaneous Nadir Overpasses (SNOs) Predictions

Prediction of SNOs between NPP and GCOM-C Satellite Orbit:

Table of predicted SNOs for the next 14.0 days since TLE Epoch: 11/26/2023
Index Date (NPP) Time (NPP) Lat,Lon (NPP) SZA (NPP ) Date (GCOM-C) Time (GCOM-C) Lat,Lon (GCOM-C) SZA (GCOM-C ) Distance(km) Time Diff (sec)
1 12/03/2023 09:43:06 69.57, 31.42 91.55 12/03/2023 09:44:13 69.53, 33.83 91.52 93.78 67
2 12/03/2023 10:33:41 -69.12,-160.62 88.91 12/03/2023 10:34:52 -69.04,-159.47 88.97 46.41 71
3 12/03/2023 11:24:18 68.62, 7.36 90.61 12/03/2023 11:25:27 68.61, 7.34 90.59 1.86 69
4 12/03/2023 12:15:01 -68.59, 174.72 89.42 12/03/2023 12:15:57 -68.61, 174.72 89.40 1.95 56
5 12/03/2023 13:05:47 68.57, -17.95 90.57 12/03/2023 13:06:25 68.55, -17.98 90.54 3.20 38
6 12/03/2023 13:56:30 -68.55, 149.40 89.46 12/03/2023 13:56:55 -68.55, 149.40 89.45 0.46 25
7 12/03/2023 14:47:16 68.53, -43.27 90.53 12/03/2023 14:47:22 68.54, -43.22 90.55 2.37 6
8 12/03/2023 15:37:59 -68.50, 124.09 89.49 12/03/2023 15:37:53 -68.49, 124.09 89.50 1.03 6
9 12/03/2023 16:28:45 68.48, -68.58 90.50 12/03/2023 16:28:20 68.48, -68.53 90.50 1.91 25
10 12/03/2023 17:19:28 -68.46, 98.77 89.53 12/03/2023 17:18:51 -68.43, 98.78 89.55 2.53 37
11 12/03/2023 18:10:14 68.44, -93.90 90.46 12/03/2023 18:09:18 68.42, -93.85 90.45 2.53 56
12 12/03/2023 19:00:56 -68.36, 73.53 89.62 12/03/2023 18:59:49 -68.37, 73.47 89.60 3.20 67
13 12/03/2023 19:51:35 67.96,-118.66 90.00 12/03/2023 19:50:23 67.98,-119.63 90.01 40.64 72
14 12/03/2023 20:42:10 -67.51, 49.21 90.45 12/03/2023 20:41:02 -67.50, 47.16 90.47 87.41 68



Historial Predications of SNOs between NPP and GCOM-C
